Satellite: NOAA-11 Catalog number: 19531 Epoch time: 07115.79974633 Element set: 0632 Inclination: 098.8093 deg RA of node: 205.6160 deg Eccentricity: 0.0011615 Arg of perigee: 176.1686 deg Mean anomaly: 183.9588 deg Mean motion: 14.14843272 rev/day Decay rate: 2.03e-06 rev/day^2 Epoch rev: 95874 Checksum: 326
Satellite: NOAA-12 Catalog number: 21263 Epoch time: 07115.94202334 Element set: 0127 Inclination: 098.7523 deg RA of node: 113.2722 deg Eccentricity: 0.0011841 Arg of perigee: 258.7653 deg Mean anomaly: 101.2177 deg Mean motion: 14.25527045 rev/day Decay rate: 4.2e-07 rev/day^2 Epoch rev: 82880 Checksum: 268
Satellite: MET-3/5 Catalog number: 21655 Epoch time: 07115.90532903 Element set: 0276 Inclination: 082.5511 deg RA of node: 039.8720 deg Eccentricity: 0.0013665 Arg of perigee: 344.8503 deg Mean anomaly: 015.2209 deg Mean motion: 13.17010784 rev/day Decay rate: 5.1e-07 rev/day^2 Epoch rev: 75452 Checksum: 277
Satellite: MET-2/21 Catalog number: 22782 Epoch time: 07115.86834086 Element set: 0808 Inclination: 082.5452 deg RA of node: 083.4190 deg Eccentricity: 0.0023334 Arg of perigee: 026.6919 deg Mean anomaly: 333.5451 deg Mean motion: 13.83617158 rev/day Decay rate: 4.7e-07 rev/day^2 Epoch rev: 68928 Checksum: 320
Satellite: OKEAN-4 Catalog number: 23317 Epoch time: 07115.80404142 Element set: 245 Inclination: 082.5409 deg RA of node: 345.4110 deg Eccentricity: 0.0023902 Arg of perigee: 066.4902 deg Mean anomaly: 293.8816 deg Mean motion: 14.82492347 rev/day Decay rate: 1.07e-06 rev/day^2 Epoch rev: 67629 Checksum: 286
Satellite: NOAA-14 Catalog number: 23455 Epoch time: 07115.91843961 Element set: 0611 Inclination: 098.9914 deg RA of node: 181.8163 deg Eccentricity: 0.0008653 Arg of perigee: 244.5639 deg Mean anomaly: 115.4602 deg Mean motion: 14.13713199 rev/day Decay rate: -1.20e-06 rev/day^2 Epoch rev: 63525 Checksum: 303
Satellite: SICH-1 Catalog number: 23657 Epoch time: 07115.53859787 Element set: 0048 Inclination: 082.5256 deg RA of node: 126.5922 deg Eccentricity: 0.0025586 Arg of perigee: 058.8143 deg Mean anomaly: 301.5601 deg Mean motion: 14.81473724 rev/day Decay rate: 2.57e-06 rev/day^2 Epoch rev: 62823 Checksum: 314
Satellite: NOAA-15 Catalog number: 25338 Epoch time: 07116.69095125 Element set: 970 Inclination: 098.5313 deg RA of node: 114.8287 deg Eccentricity: 0.0010578 Arg of perigee: 174.2886 deg Mean anomaly: 185.8904 deg Mean motion: 14.24637257 rev/day Decay rate: 8.7e-07 rev/day^2 Epoch rev: 46536 Checksum: 338
Satellite: RESURS Catalog number: 25394 Epoch time: 07115.72566525 Element set: 0645 Inclination: 098.4479 deg RA of node: 172.3228 deg Eccentricity: 0.0001891 Arg of perigee: 014.8212 deg Mean anomaly: 345.3022 deg Mean motion: 14.24133144 rev/day Decay rate: -5.0e-08 rev/day^2 Epoch rev: 45688 Checksum: 287
Satellite: FENGYUN1 Catalog number: 25730 Epoch time: 07116.95326955 Element set: 81 Inclination: 098.6894 deg RA of node: 102.7685 deg Eccentricity: 0.0019711 Arg of perigee: 275.4265 deg Mean anomaly: 084.4681 deg Mean motion: 14.07462161 rev/day Decay rate: 5.22e-06 rev/day^2 Epoch rev: 41026 Checksum: 303
Satellite: OKEAN-0 Catalog number: 25860 Epoch time: 07115.60243439 Element set: 35 Inclination: 097.7317 deg RA of node: 120.3104 deg Eccentricity: 0.0001150 Arg of perigee: 105.3966 deg Mean anomaly: 254.7379 deg Mean motion: 14.73446241 rev/day Decay rate: 5.7e-07 rev/day^2 Epoch rev: 41775 Checksum: 276
Satellite: NOAA-16 Catalog number: 26536 Epoch time: 07116.05205826 Element set: 384 Inclination: 099.1129 deg RA of node: 092.0962 deg Eccentricity: 0.0009952 Arg of perigee: 324.1116 deg Mean anomaly: 035.9391 deg Mean motion: 14.12422492 rev/day Decay rate: 3.48e-06 rev/day^2 Epoch rev: 33974 Checksum: 301
Satellite: NOAA-17 Catalog number: 27453 Epoch time: 07115.88607528 Element set: 0394 Inclination: 098.5812 deg RA of node: 186.4349 deg Eccentricity: 0.0010917 Arg of perigee: 243.5346 deg Mean anomaly: 116.4722 deg Mean motion: 14.23872051 rev/day Decay rate: -5.0e-08 rev/day^2 Epoch rev: 25127 Checksum: 307
Satellite: NOAA-18 Catalog number: 28654 Epoch time: 07115.92324894 Element set: 0933 Inclination: 098.8251 deg RA of node: 058.0910 deg Eccentricity: 0.0015264 Arg of perigee: 058.0684 deg Mean anomaly: 302.1988 deg Mean motion: 14.11056139 rev/day Decay rate: -7.0e-07 rev/day^2 Epoch rev: 09948 Checksum: 320
/EX SB KEPS @ AMSAT $ORB07116.M Orbital Elements 07116.MISC
HR AMSAT ORBITAL ELEMENTS FOR MANNED AND MISCELLANEOUS SATELLITES FROM WA5QGD FORT WORTH,TX April 26, 2007 Send SUBSCRIBE KEPS/UNSUBSCRIBE KEPS to [email protected] only BID: ORB07116.M TO ALL RADIO AMATEURS BT
Satellite: HUBBLE Catalog number: 20580 Epoch time: 07115.85230504 Element set: 0882 Inclination: 028.4665 deg RA of node: 171.3876 deg Eccentricity: 0.0003411 Arg of perigee: 261.4785 deg Mean anomaly: 098.5415 deg Mean motion: 15.00227615 rev/day Decay rate: 4.08e-06 rev/day^2 Epoch rev: 73209 Checksum: 283
Satellite: UARS Catalog number: 21701 Epoch time: 07115.64888598 Element set: 0055 Inclination: 056.9739 deg RA of node: 181.8552 deg Eccentricity: 0.0100055 Arg of perigee: 091.1180 deg Mean anomaly: 270.1345 deg Mean motion: 15.47660219 rev/day Decay rate: 4.239e-05 rev/day^2 Epoch rev: 85761 Checksum: 307
Satellite: PO-34 Catalog number: 25520 Epoch time: 07115.34713688 Element set: 0730 Inclination: 028.4600 deg RA of node: 102.3940 deg Eccentricity: 0.0005079 Arg of perigee: 043.6172 deg Mean anomaly: 316.4821 deg Mean motion: 15.16976074 rev/day Decay rate: 4.92e-06 rev/day^2 Epoch rev: 46949 Checksum: 296
Satellite: ISS Catalog number: 25544 Epoch time: 07116.97320602 Element set: 98 Inclination: 051.6333 deg RA of node: 008.4703 deg Eccentricity: 0.0017380 Arg of perigee: 107.3971 deg Mean anomaly: 082.6440 deg Mean motion: 15.78683823 rev/day Decay rate: 5.5934e-04 rev/day^2 Epoch rev: 48268 Checksum: 307
Satellite: OO-38 Catalog number: 26063 Epoch time: 07115.55711925 Element set: 894 Inclination: 100.2268 deg RA of node: 108.4593 deg Eccentricity: 0.0036775 Arg of perigee: 308.5963 deg Mean anomaly: 051.1931 deg Mean motion: 14.35802673 rev/day Decay rate: -2.0e-07 rev/day^2 Epoch rev: 37949 Checksum: 314
Satellite: UWE-1 Catalog number: 28892 Epoch time: 07115.76536128 Element set: 0733 Inclination: 098.1350 deg RA of node: 013.4349 deg Eccentricity: 0.0016389 Arg of perigee: 277.1397 deg Mean anomaly: 082.7950 deg Mean motion: 14.59492183 rev/day Decay rate: 1.69e-06 rev/day^2 Epoch rev: 07956 Checksum: 338
Satellite: CO-58 Catalog number: 28895 Epoch time: 07115.67719620 Element set: 0713 Inclination: 098.1369 deg RA of node: 013.5399 deg Eccentricity: 0.0016837 Arg of perigee: 277.3414 deg Mean anomaly: 082.5912 deg Mean motion: 14.59541263 rev/day Decay rate: 2.28e-06 rev/day^2 Epoch rev: 07943 Checksum: 339
Satellite: NCUBE2 Catalog number: 28897 Epoch time: 07116.64894621 Element set: 236 Inclination: 098.1370 deg RA of node: 014.4552 deg Eccentricity: 0.0016224 Arg of perigee: 276.3491 deg Mean anomaly: 083.5871 deg Mean motion: 14.59702555 rev/day Decay rate: 1.55e-06 rev/day^2 Epoch rev: 7185 Checksum: 314
Satellite: NMARS Catalog number: 29662 Epoch time: 07115.92421258 Element set: 0246 Inclination: 051.6341 deg RA of node: 000.0924 deg Eccentricity: 0.0006456 Arg of perigee: 179.2470 deg Mean anomaly: 180.8551 deg Mean motion: 16.12390165 rev/day Decay rate: 4.27695e-03 rev/day^2 Epoch rev: 01995 Checksum: 295
Satellite: FCAL Catalog number: 29667 Epoch time: 07115.94653900 Element set: 0131 Inclination: 051.6358 deg RA of node: 007.8866 deg Eccentricity: 0.0016491 Arg of perigee: 137.3541 deg Mean anomaly: 222.8746 deg Mean motion: 15.86224937 rev/day Decay rate: 1.7409e-04 rev/day^2 Epoch rev: 01970 Checksum: 316
Satellite: FALCON Catalog number: 30776 Epoch time: 07115.56630717 Element set: 0049 Inclination: 035.4335 deg RA of node: 171.6506 deg Eccentricity: 0.0001654 Arg of perigee: 354.5914 deg Mean anomaly: 005.4784 deg Mean motion: 15.02685688 rev/day Decay rate: 2.55e-06 rev/day^2 Epoch rev: 00713 Checksum: 290
Satellite: MAST Catalog number: 31126 Epoch time: 07116.41559587 Element set: 16 Inclination: 098.0847 deg RA of node: 191.3391 deg Eccentricity: 0.0094993 Arg of perigee: 185.0678 deg Mean anomaly: 174.9547 deg Mean motion: 14.53333903 rev/day Decay rate: 3.93e-06 rev/day^2 Epoch rev: 133 Checksum: 313
Satellite: CAPE1 Catalog number: 31130 Epoch time: 07115.66683451 Element set: 5 Inclination: 098.0838 deg RA of node: 190.5976 deg Eccentricity: 0.0103076 Arg of perigee: 187.4083 deg Mean anomaly: 172.5597 deg Mean motion: 14.51841167 rev/day Decay rate: 1.48e-06 rev/day^2 Epoch rev: 99 Checksum: 302
/EX
participants (1)
-
Ray Hoad